Location: Unnamed
(48.6007°N, 2.4808°E)
Time: 22:22:44
(UTC+02:00)

CUTE 1.7 + AOD 2 - Pass Details

Date: 04 April 2023
Orbit: 582 x 600 km, 97.7° (Epoch: 31 May)

Event Time Altitude Azimuth Distance (km) Brightness Sun altitude
Rises 06:17:18 0° 6° (N) 2,857 ? -11.2°
Reaches altitude 10° 06:19:36 10° 358° (N) 1,952 ? -10.9°
Maximum altitude 06:23:28 36° 292° (WNW) 963 ? -10.3°
Enters shadow 06:27:15 11° 226° (SW) 1,909 ? -9.7°
